Change the Weather History Date:

Monday, February 24, 2014

  Actual Average Record
Temperature  
Mean Temperature 6 °F -  
Max Temperature 14 °F 31 °F 63 °F (1931)
Min Temperature -2 °F 12 °F -21 °F (1993)
Degree Days  
Heating Degree Days 59    
Moisture  
Dew Point 1 °F    
Average Humidity 76    
Maximum Humidity 85    
Minimum Humidity 67    
Precipitation  
Precipitation 0.00 in - - ()
Sea Level Pressure  
Sea Level Pressure 30.32 in    
Wind  
Wind Speed 9 mph (WNW)    
Max Wind Speed 13 mph    
Max Gust Speed -    
Visibility 9 miles    
Events Snow    
Averages and records for this station are not official NWS values.
T = Trace of Precipitation, MM = Missing Value Source: NWS Daily Summary

Daily Weather History Graph

Daily Weather History Graph

Search for Another Location

Airport or City:

Trip Planner

Search our weather history database for the weather conditions in past years. The results will help you decide how hot, cold, wet, or windy it might be!

Date:

Astronomy

Feb. 24, 2014 Rise Set
Actual Time 6:59 AM CST 5:56 PM CST
Civil Twilight 6:30 AM CST 6:25 PM CST
Nautical Twilight 5:56 AM CST 6:58 PM CST
Astronomical Twilight 5:23 AM CST 7:32 PM CST
Moon 3:05 AM CST (2/24) 12:51 PM CST (2/24)
Length of Visible Light 11h 54m
Length of Day
10h 56m
Waning Crescent, 28% of the Moon is Illuminated
Feb 24
Waning Crescent
Mar 1
New
Mar 8
First Quarter
Mar 16
Full
Mar 23
Last Quarter

Hourly Weather History & Observations

Time (CST) Temp. Windchill Dew Point Humidity Pressure Visibility Wind Dir Wind Speed Gust Speed Precip Events Conditions
12:16 AM 8.6 °F -3.7 °F 1.4 °F 73% 30.30 in 10.0 mi WNW 8.1 mph - N/A   Clear
12:36 AM 5.0 °F -9.1 °F 1.4 °F 85% 30.30 in 10.0 mi West 9.2 mph - N/A   Clear
12:56 AM 3.2 °F -12.2 °F -0.4 °F 85% 30.31 in 10.0 mi West 10.4 mph - N/A   Clear
1:16 AM 3.2 °F -11.3 °F -0.4 °F 85% 30.31 in 10.0 mi West 9.2 mph - N/A   Clear
1:36 AM 1.4 °F -14.5 °F -4.0 °F 78% 30.31 in 10.0 mi West 10.4 mph - N/A   Clear
1:56 AM 3.2 °F -12.2 °F -0.4 °F 85% 30.31 in 10.0 mi West 10.4 mph - N/A   Clear
2:16 AM 3.2 °F -12.2 °F -0.4 °F 85% 30.31 in 10.0 mi WNW 10.4 mph - N/A   Clear
2:36 AM 3.2 °F -13.1 °F -0.4 °F 85% 30.32 in 10.0 mi West 11.5 mph - N/A   Clear
2:55 AM 3.2 °F -11.3 °F -0.4 °F 85% 30.32 in 10.0 mi WNW 9.2 mph - N/A   Clear
3:16 AM 3.2 °F -13.1 °F -0.4 °F 85% 30.31 in 10.0 mi WNW 11.5 mph - N/A   Clear
3:36 AM 3.2 °F -13.1 °F -0.4 °F 85% 30.32 in 10.0 mi WNW 11.5 mph - N/A   Clear
3:56 AM 3.2 °F -13.9 °F -0.4 °F 85% 30.32 in 10.0 mi WNW 12.7 mph - N/A   Clear
4:16 AM 3.2 °F -13.9 °F -0.4 °F 85% 30.32 in 10.0 mi WNW 12.7 mph - N/A   Clear
4:36 AM 3.2 °F -13.9 °F -0.4 °F 85% 30.31 in 10.0 mi WNW 12.7 mph - N/A   Clear
4:56 AM 3.2 °F -11.3 °F -0.4 °F 85% 30.31 in 10.0 mi WNW 9.2 mph - N/A   Clear
5:16 AM 3.2 °F -12.2 °F -0.4 °F 85% 30.31 in 10.0 mi WNW 10.4 mph - N/A   Clear
5:36 AM 1.4 °F -11.3 °F -4.0 °F 78% 30.31 in 10.0 mi WNW 6.9 mph - N/A   Clear
5:56 AM 1.4 °F -9.9 °F -4.0 °F 78% 30.32 in 10.0 mi West 5.8 mph - N/A   Clear
6:16 AM -0.4 °F -12.0 °F -5.8 °F 78% 30.32 in 10.0 mi West 5.8 mph - N/A   Clear
6:36 AM -0.4 °F -12.0 °F -5.8 °F 78% 30.32 in 10.0 mi West 5.8 mph - N/A   Clear
6:56 AM -2.2 °F -18.0 °F -5.8 °F 85% 30.32 in 10.0 mi WNW 9.2 mph - N/A   Clear
7:16 AM -0.4 °F -15.7 °F -5.8 °F 78% 30.33 in 10.0 mi West 9.2 mph - N/A   Clear
7:36 AM -0.4 °F -15.7 °F -5.8 °F 78% 30.33 in 10.0 mi WNW 9.2 mph - N/A   Clear
7:56 AM 1.4 °F -13.5 °F -4.0 °F 78% 30.35 in 10.0 mi West 9.2 mph - N/A   Clear
8:16 AM 1.4 °F -15.3 °F -4.0 °F 78% 30.35 in 10.0 mi West 11.5 mph - N/A   Clear
8:36 AM 3.2 °F -11.3 °F -4.0 °F 72% 30.35 in 10.0 mi WNW 9.2 mph - N/A   Clear
8:56 AM 3.2 °F -12.2 °F -2.2 °F 78% 30.35 in 10.0 mi WNW 10.4 mph - N/A   Clear
9:16 AM 3.2 °F -12.2 °F -4.0 °F 72% 30.34 in 10.0 mi NW 10.4 mph - N/A   Clear
9:36 AM 3.2 °F -13.1 °F -4.0 °F 72% 30.35 in 10.0 mi NW 11.5 mph - N/A   Clear
9:56 AM 5.0 °F -10.0 °F -2.2 °F 72% 30.35 in 10.0 mi NW 10.4 mph - N/A   Clear
10:16 AM 5.0 °F -6.9 °F -2.2 °F 72% 30.35 in 10.0 mi WNW 6.9 mph - N/A   Clear
10:36 AM 5.0 °F -6.9 °F -0.4 °F 78% 30.35 in 10.0 mi WNW 6.9 mph - N/A   Clear
10:56 AM 6.8 °F -2.0 °F -0.4 °F 72% 30.35 in 10.0 mi NW 4.6 mph - N/A   Clear
11:16 AM 8.6 °F -1.3 °F -0.4 °F 67% 30.35 in 10.0 mi WNW 5.8 mph - N/A   Clear
11:36 AM 12.2 °F 0.7 °F 3.2 °F 67% 30.36 in 10.0 mi West 8.1 mph - N/A   Clear
11:56 AM 12.2 °F -0.2 °F 3.2 °F 67% 30.35 in 10.0 mi West 9.2 mph - N/A   Scattered Clouds
12:16 PM 12.2 °F 0.7 °F 3.2 °F 67% 30.35 in 10.0 mi West 8.1 mph - N/A   Mostly Cloudy
12:36 PM 12.2 °F -1.0 °F 3.2 °F 67% 30.34 in 10.0 mi West 10.4 mph - N/A   Mostly Cloudy
12:56 PM 12.2 °F -0.2 °F 3.2 °F 67% 30.33 in 10.0 mi West 9.2 mph - N/A   Mostly Cloudy
1:16 PM 14.0 °F 2.9 °F 5.0 °F 67% 30.34 in 10.0 mi West 8.1 mph - N/A   Mostly Cloudy
1:36 PM 14.0 °F 1.2 °F 5.0 °F 67% 30.32 in 10.0 mi WNW 10.4 mph - N/A   Overcast
1:56 PM 14.0 °F 2.9 °F 5.0 °F 67% 30.31 in 10.0 mi WNW 8.1 mph - N/A   Mostly Cloudy
2:16 PM 14.0 °F 2.0 °F 5.0 °F 67% 30.31 in 10.0 mi West 9.2 mph - N/A   Overcast
2:36 PM 14.0 °F 2.0 °F 5.0 °F 67% 30.31 in 10.0 mi West 9.2 mph - N/A   Overcast
2:57 PM 14.0 °F 2.0 °F 5.0 °F 67% 30.31 in 10.0 mi West 9.2 mph - N/A   Overcast
3:16 PM 14.0 °F 2.9 °F 5.0 °F 67% 30.29 in 10.0 mi WNW 8.1 mph - N/A   Overcast
3:36 PM 14.0 °F 2.9 °F 5.0 °F 67% 30.29 in 10.0 mi West 8.1 mph - N/A   Overcast
3:56 PM 14.0 °F 2.9 °F 5.0 °F 67% 30.29 in 10.0 mi WNW 8.1 mph - N/A   Overcast
4:16 PM 14.0 °F 3.9 °F 5.0 °F 67% 30.29 in 10.0 mi NW 6.9 mph - N/A   Overcast
4:36 PM 12.2 °F 0.7 °F 3.2 °F 67% 30.29 in 10.0 mi WNW 8.1 mph - N/A   Overcast
4:56 PM 12.2 °F 2.9 °F 3.2 °F 67% 30.28 in 10.0 mi WNW 5.8 mph - N/A   Overcast
5:17 PM 12.2 °F 1.7 °F 3.2 °F 67% 30.28 in 10.0 mi West 6.9 mph - N/A   Overcast
5:37 PM 12.2 °F 0.7 °F 3.2 °F 67% 30.30 in 10.0 mi West 8.1 mph - N/A   Overcast
5:57 PM 12.2 °F 0.7 °F 3.2 °F 67% 30.30 in 10.0 mi West 8.1 mph - N/A   Overcast
6:16 PM 12.2 °F -0.2 °F 5.0 °F 73% 30.31 in 10.0 mi West 9.2 mph - N/A   Overcast
6:36 PM 12.2 °F -0.2 °F 5.0 °F 73% 30.32 in 10.0 mi West 9.2 mph - N/A   Overcast
6:56 PM 12.2 °F -0.2 °F 5.0 °F 73% 30.32 in 10.0 mi WNW 9.2 mph - N/A   Overcast
7:16 PM 12.2 °F -1.0 °F 5.0 °F 73% 30.31 in 10.0 mi West 10.4 mph - N/A   Overcast
7:36 PM 10.4 °F -2.4 °F 5.0 °F 79% 30.31 in 10.0 mi WNW 9.2 mph - N/A   Overcast
7:57 PM 10.4 °F -2.4 °F 3.2 °F 73% 30.32 in 10.0 mi West 9.2 mph - N/A   Overcast
8:16 PM 10.4 °F -3.3 °F 3.2 °F 73% 30.32 in 10.0 mi WNW 10.4 mph - N/A   Overcast
8:36 PM 10.4 °F -4.1 °F 3.2 °F 73% 30.33 in 3.0 mi West 11.5 mph - N/A Snow Light Snow
8:57 PM 8.6 °F -6.3 °F 3.2 °F 79% 30.33 in 3.0 mi WNW 11.5 mph - N/A Snow Light Snow
9:16 PM 8.6 °F -6.3 °F 3.2 °F 79% 30.33 in 2.5 mi WNW 11.5 mph - N/A Snow Light Snow
9:36 PM 8.6 °F -6.3 °F 5.0 °F 85% 30.33 in 3.0 mi WNW 11.5 mph - N/A Snow Light Snow
9:55 PM 8.6 °F -6.3 °F 5.0 °F 85% 30.33 in 3.0 mi WNW 11.5 mph - N/A Snow Light Snow
10:16 PM 8.6 °F -5.5 °F 5.0 °F 85% 30.33 in 3.0 mi WNW 10.4 mph - N/A   Overcast
10:36 PM 8.6 °F -7.0 °F 3.2 °F 79% 30.33 in 5.0 mi WNW 12.7 mph - N/A Snow Light Snow
10:56 PM 8.6 °F -6.3 °F 3.2 °F 79% 30.33 in 7.0 mi WNW 11.5 mph - N/A Snow Light Snow
11:16 PM 6.8 °F -8.6 °F 1.4 °F 79% 30.33 in 10.0 mi WNW 11.5 mph - N/A Snow Light Snow
11:36 PM 5.0 °F -11.6 °F 1.4 °F 85% 30.33 in 10.0 mi West 12.7 mph - N/A   Scattered Clouds
11:56 PM 5.0 °F -11.6 °F 1.4 °F 85% 30.33 in 10.0 mi WNW 12.7 mph - N/A   Clear